Location: Engelmannsreuth
(49.8125°N, 11.6497°E)
Time: 02:48:43
(UTC+00:00)

MSX - Pass Details

Date: 17 February 2020
Orbit: 894 x 906 km, 98.8° (Epoch: 03 April)

Event Time Altitude Azimuth Distance (km) Brightness Sun altitude
Rises 03:43:44 0° 12° (NNE) 3,527 7.2 -25.9°
Reaches altitude 10° 03:46:11 10° 9° (N) 2,581 6.4 -25.5°
Maximum altitude 03:51:48 59° 292° (WNW) 1,034 3.8 -24.6°
Enters shadow 03:52:02 58° 281° (W) 1,038 3.8 -24.6°
